Wetbulb
24.45 25.98 25.93 26.58 28.42 29.54 31.28 32.10 31.90 36.52 38.70 40.05 40.89 41.98 43.15 44.67 46.30 47.50 49.81 51.54 59.38 62.25 62.77 62.84 62.57 61.91 61.32
22.55 23.86 24.82 26.51 27.12 27.55 29.85 31.95 31.72 35.51 38.00 39.81 41.22 43.21 44.59 45.37 45.31 46.28 48.16 49.77 51.11 58.61 61.06 61.63 61.88 61.49 61.23
21.55 24.39 25.39 26.23 25.92 27.74 28.52 29.56 32.21 35.35 37.94 38.90 39.02 39.88 40.92 42.02 42.70 43.06 44.64 47.16 48.96 51.20 58.17 59.29 60.18 60.67 60.83
22.92 23.54 24.89 26.83 26.96 25.78 26.01 29.18 29.41 33.63 34.76 36.09 38.10 39.18 41.02 42.58 43.09 44.48 44.07 45.48 46.38 51.58 56.51 56.91 57.44 58.57 59.48
23.05 23.68 24.68 25.00 24.83 26.84 26.52 27.95 29.12 30.63 30.98 32.24 34.44 36.79 36.47 38.27 39.39 40.32 41.31 42.94 44.12 45.84 47.17 56.48 56.25 56.88 57.90
24.05 23.38 23.95 25.31 26.22 25.67 25.31 24.32 22.79 30.09 28.75 28.38 31.40 30.92 33.46 34.76 36.94 38.25 39.63 41.25 42.84 43.62 45.72 46.16 55.58 55.73 56.40
23.34 23.45 23.20 24.75 25.25 24.57 24.69 24.22 23.59 26.69 27.09 24.82 28.61 27.68 31.21 33.70 36.36 37.40 38.61 39.54 40.57 41.35 43.45 45.16 46.65 54.71 55.04
25.42 25.16 25.83 26.52 26.26 26.11 25.42 25.27 26.19 27.09 28.05 23.04 27.56 27.16 30.73 33.18 36.86 37.91 39.00 39.41 40.40 41.12 42.65 44.14 44.47 46.82 53.91
31.45 31.81 32.27 32.81 32.33 29.50 27.17 25.23 23.87 25.50 29.49 27.34 27.93 28.92 30.98 31.50 34.37 36.65 37.92 38.72 39.73 41.67 42.11 44.01 46.17 46.51 51.30
26.48 28.32 30.03 29.33 32.12 29.51 27.60 24.37 23.97 23.03 27.21 25.27 25.71 26.28 23.62 29.25 31.26 36.13 37.30 36.88 37.99 40.48 42.64 43.23 44.26 43.48 49.07
28.04 26.98 26.78 27.30 28.21 28.90 28.26 26.87 25.20 24.71 28.48 27.98 25.63 25.45 24.79 24.81 28.47 31.87 33.16 34.04 34.95 35.62 37.92 40.84 41.90 41.80 45.60
22.59 22.16 22.58 23.64 25.14 26.43 27.64 28.91 29.44 27.55 28.91 29.03 26.73 26.44 25.37 24.47 24.78 29.23 31.35 33.28 34.98 35.33 35.83 37.28 39.83 41.69 42.54
19.41 20.08 21.66 23.07 24.00 24.37 25.59 26.69 27.96 29.61 31.10 30.68 29.20 28.76 28.19 26.04 25.30 26.96 28.13 29.78 32.73 33.45 34.23 34.53 35.56 37.62 37.32
20.23 21.14 21.68 21.37 21.19 22.43 21.71 22.74 22.37 22.44 25.80 27.29 27.98 28.04 26.17 26.86 27.25 26.83 28.43 26.52 31.06 33.37 35.08 35.62 37.00 38.81 39.81
19.10 19.30 19.79 20.23 20.44 21.65 21.39 21.26 19.97 19.77 20.47 23.22 25.29 26.08 26.31 26.06 24.35 26.01 26.24 26.72 29.22 30.20 31.12 30.80 32.38 33.71 35.87
18.58 18.74 18.93 19.30 19.59 20.41 21.11 20.15 19.15 19.46 19.78 21.02 22.08 22.32 23.07 24.73 28.44 24.52 25.46 25.75 28.30 29.70 30.55 30.39 31.26 34.42 36.87
17.47 17.79 18.56 18.79 19.28 18.58 18.99 19.27 18.85 19.50 19.97 20.77 20.61 19.91 17.24 16.29 22.55 29.63 24.25 25.56 27.03 27.56 29.14 29.71 29.42 31.58 34.54
MSLP
1025.22 1024.77 1023.75 1022.89 1022.27 1021.68 1020.98 1020.18 1019.59 1018.90 1018.13 1017.35 1016.70 1016.07 1015.34 1014.85 1014.71 1014.03 1013.66 1012.68 1011.84 1011.55 1012.21 1013.05 1013.87 1014.64 1015.46
1024.62 1024.01 1023.41 1022.50 1021.46 1020.84 1020.14 1019.23 1018.66 1018.12 1017.45 1016.38 1015.51 1014.76 1014.33 1014.03 1014.20 1013.74 1013.15 1012.52 1011.78 1010.83 1010.61 1011.28 1012.19 1013.08 1013.84
1023.35 1023.20 1022.65 1022.13 1020.76 1019.78 1019.26 1018.44 1017.72 1017.11 1016.30 1015.36 1014.96 1014.36 1013.99 1013.43 1013.30 1012.98 1012.09 1011.83 1011.06 1010.16 1009.29 1009.80 1010.51 1011.35 1012.29
1022.57 1021.79 1021.49 1020.83 1020.16 1019.14 1017.91 1017.51 1016.80 1016.28 1015.74 1015.14 1014.08 1013.33 1012.98 1012.44 1012.35 1011.91 1011.29 1010.97 1010.45 1009.20 1008.28 1008.42 1008.93 1009.59 1010.51
1021.47 1020.54 1020.05 1019.79 1019.27 1018.54 1017.37 1016.50 1015.92 1015.92 1014.91 1014.27 1013.48 1012.66 1012.49 1012.22 1011.88 1011.15 1010.50 1010.22 1009.79 1009.29 1009.08 1006.97 1007.44 1007.89 1008.70
1020.43 1019.65 1018.82 1018.75 1018.35 1017.91 1017.19 1015.89 1014.68 1015.29 1014.62 1013.26 1013.45 1012.44 1012.14 1011.49 1011.06 1009.91 1009.41 1009.44 1009.17 1008.81 1007.89 1008.36 1006.09 1006.39 1006.88
1019.29 1018.59 1017.88 1017.40 1017.14 1016.58 1016.17 1015.33 1013.99 1013.29 1013.33 1012.17 1012.10 1010.92 1010.52 1009.77 1009.22 1008.65 1008.86 1008.29 1008.30 1007.23 1007.32 1007.50 1007.17 1004.49 1005.22
1018.07 1017.10 1016.75 1016.16 1016.03 1015.35 1014.72 1013.88 1012.82 1012.08 1012.48 1011.09 1010.69 1009.58 1009.24 1008.60 1008.46 1008.11 1007.70 1007.33 1006.57 1005.71 1006.17 1006.56 1006.34 1004.91 1003.54
1015.95 1015.19 1014.55 1013.90 1013.65 1013.48 1013.08 1012.76 1011.77 1010.82 1010.93 1010.18 1009.49 1008.80 1008.46 1007.68 1007.33 1006.68 1005.79 1005.20 1005.02 1005.09 1004.93 1005.39 1004.79 1003.48 1002.99
1014.40 1013.69 1013.14 1012.51 1012.12 1012.16 1011.86 1011.53 1011.12 1009.80 1008.88 1009.21 1008.25 1008.31 1007.01 1006.51 1006.05 1005.18 1005.01 1004.78 1004.91 1004.02 1003.62 1004.07 1003.16 1002.49 1001.88
1012.80 1012.54 1012.15 1011.69 1011.18 1011.10 1010.67 1010.38 1009.59 1008.31 1007.37 1008.17 1007.40 1007.09 1006.58 1005.55 1004.98 1004.79 1004.23 1003.93 1003.76 1002.99 1002.99 1002.52 1002.05 1001.45 1001.49
1012.06 1011.55 1011.02 1010.38 1009.87 1009.66 1009.19 1008.71 1008.10 1007.14 1006.78 1006.99 1006.47 1006.14 1005.48 1004.55 1003.97 1003.75 1003.07 1002.85 1002.73 1001.53 1001.79 1001.37 1000.24 999.96 1000.46
1011.37 1010.73 1010.25 1009.64 1009.16 1008.70 1008.12 1007.44 1006.76 1006.15 1005.63 1005.34 1005.09 1004.52 1004.25 1003.24 1002.63 1002.37 1002.23 1001.37 1001.48 1000.69 1001.16 1000.09 1000.12 999.53 999.64
1010.49 1009.85 1009.34 1008.86 1008.25 1007.79 1007.07 1006.52 1006.01 1004.81 1004.25 1003.96 1003.67 1003.24 1002.56 1002.11 1001.75 1001.02 1000.85 1000.54 999.98 999.66 999.28 999.31 998.88 998.28 998.72
1009.93 1009.17 1008.43 1007.73 1006.94 1006.42 1005.92 1005.35 1004.77 1003.72 1002.73 1002.59 1002.43 1002.04 1001.51 1001.10 1000.51 1000.06 999.78 999.45 999.15 999.08 999.20 998.50 998.02 997.01 997.89
1009.01 1008.25 1007.36 1006.54 1005.69 1005.14 1004.74 1004.17 1003.35 1002.49 1001.60 1001.26 1001.19 1000.80 1000.13 999.19 999.10 998.37 998.39 998.25 998.21 997.93 997.61 996.60 995.80 996.39 995.89
1008.07 1007.12 1006.26 1005.39 1004.53 1003.76 1003.15 1002.62 1001.82 1001.08 1000.14 999.96 999.91 999.66 998.77 997.13 995.89 996.72 996.47 996.40 996.47 996.13 995.65 995.53 994.28 994.46 994.62
Wind_Speed
10 11 18 16 14 14 14 13 14 27 29 29 28 29 27 28 29 29 28 26 27 33 35 35 35 35 33
12 11 13 17 17 16 14 12 13 21 29 29 27 25 22 24 27 25 27 25 28 31 35 37 37 36 35
14 10 11 11 17 15 13 13 12 23 26 26 28 27 28 28 29 29 27 25 30 31 33 35 36 37 36
13 12 11 11 12 14 14 10 12 12 18 22 28 26 26 19 23 21 18 24 27 27 32 34 35 36 37
14 13 11 10 12 12 14 12 11 12 12 11 10 9 10 18 19 21 22 24 27 31 32 34 35 37 37
13 14 17 12 11 11 14 15 18 11 14 14 11 13 13 12 25 29 27 26 25 27 27 34 36 38 38
18 17 17 16 14 15 15 17 18 14 12 16 11 15 13 14 25 27 29 29 29 26 29 30 32 36 38
17 20 18 18 15 17 19 20 18 15 12 16 12 14 11 11 25 26 28 30 30 25 27 27 33 27 37
32 34 34 35 30 16 12 12 14 15 11 13 12 12 10 11 12 29 34 31 29 27 25 31 30 21 27
18 22 26 24 33 21 14 14 14 17 14 12 13 11 16 12 14 11 5 16 24 20 18 21 20 11 14
12 10 12 13 11 11 15 14 15 17 17 13 13 11 12 14 10 13 14 13 12 13 24 26 21 15 15
12 12 13 13 12 12 15 15 15 21 19 16 12 12 12 14 14 11 12 11 10 9 10 18 26 27 25
12 12 12 12 14 13 15 17 17 17 17 19 16 16 13 16 15 12 14 11 10 9 12 12 12 10 13
12 12 12 12 12 11 13 12 12 14 17 18 18 18 16 16 15 16 13 12 8 9 7 7 8 6 8
11 12 12 12 13 11 12 12 13 14 15 12 14 16 16 19 16 16 14 14 14 13 13 13 12 10 13
12 12 13 13 13 12 12 12 14 14 15 13 12 13 13 17 26 17 15 15 13 14 14 13 13 9 11
13 13 13 14 18 13 13 13 14 14 15 13 13 13 15 19 14 27 16 14 13 13 13 13 14 13 10
Wind_Direction
286 289 294 295 293 295 291 292 291 294 299 299 299 296 294 294 289 294 296 306 261 214 212 210 210 209 209
284 283 276 290 290 288 288 287 289 290 294 295 295 300 306 307 306 305 307 309 297 252 218 211 209 210 209
279 276 276 280 285 284 281 284 285 286 285 296 297 292 291 286 282 280 279 313 310 283 223 215 210 208 209
276 277 272 269 267 285 288 275 282 281 287 283 288 289 285 307 305 296 300 294 319 302 232 217 209 208 208
271 275 272 272 269 279 285 294 286 283 282 280 275 297 298 295 291 294 298 297 297 294 325 223 213 207 206
277 275 279 281 280 278 283 287 287 273 284 279 283 280 285 285 284 290 290 290 295 281 286 318 221 211 207
276 273 277 270 270 272 266 271 273 275 273 274 275 275 276 274 280 282 279 282 279 286 276 285 302 215 209
262 265 265 269 262 259 261 264 271 270 259 268 266 266 270 270 276 274 273 274 275 271 269 276 282 285 212
275 276 274 273 273 265 260 256 265 271 263 257 266 270 269 275 279 280 274 274 270 263 265 267 274 289 251
271 270 270 268 270 270 273 270 269 278 267 261 270 271 280 273 270 254 266 291 295 301 285 288 295 320 272
282 287 283 274 262 249 251 251 257 259 265 267 270 265 259 273 267 270 285 287 282 282 276 277 290 283 302
287 286 281 277 274 269 265 257 251 255 265 256 263 257 262 270 268 266 262 262 263 267 275 277 279 278 278
281 279 278 279 280 276 272 270 269 264 262 258 252 257 251 258 268 263 266 264 264 267 262 262 263 259 283
279 282 284 281 275 272 271 269 266 264 262 260 258 258 261 257 262 264 253 255 259 262 282 275 284 290 258
278 279 277 275 272 268 265 266 260 264 266 262 256 255 255 258 260 258 261 260 256 255 255 255 250 247 256
278 277 276 275 275 272 266 261 261 261 263 262 263 263 259 252 241 252 251 249 249 248 246 256 259 235 237
277 276 275 273 278 272 266 263 261 260 258 258 255 253 258 257 253 238 250 252 252 252 250 247 252 255 258